EDT,Max TemperatureF,Mean TemperatureF,Min TemperatureF,Max Dew PointF,MeanDew PointF,Min DewpointF,Max Humidity, Mean Humidity, Min Humidity, Max Sea Level PressureIn, Mean Sea Level PressureIn, Min Sea Level PressureIn, Max VisibilityMiles, Mean VisibilityMiles, Min VisibilityMiles, Max Wind SpeedMPH, Mean Wind SpeedMPH, Max Gust SpeedMPH,PrecipitationIn, CloudCover, Events, WindDirDegrees
2013-8-1,82,74,65,70,68,64,100,85,69,29.98,29.95,29.91,10,8,0,17,2,24,0.06,6,Fog-Rain-Thunderstorm,227
2013-8-2,82,72,62,66,63,60,100,76,51,30.03,30.00,29.95,10,7,0,14,3,20,0.00,5,Fog,220
2013-8-3,78,72,65,72,68,65,100,84,67,30.01,29.99,29.97,10,8,0,9,1,15,0.06,7,Fog-Rain,35
2013-8-4,80,70,60,68,63,57,100,74,48,30.10,30.05,30.00,10,6,0,13,2,16,0.00,3,Fog,351
2013-8-5,80,68,55,63,58,53,100,70,39,30.14,30.07,29.99,10,8,0,9,1,17,0.00,3,Fog,342
2013-8-6,86,74,62,69,63,60,100,72,44,30.02,29.98,29.95,10,10,7,7,2,10,0.00,4,,34
2013-8-7,87,77,67,72,70,66,100,81,61,29.99,29.96,29.93,10,10,6,15,4,20,0.00,5,,186
2013-8-8,86,79,71,74,72,69,100,83,65,30.01,29.96,29.93,10,10,7,16,4,22,0.06,7,Rain,211
2013-8-9,85,78,71,74,73,72,100,85,69,30.06,29.98,29.93,10,8,1,15,5,20,0.37,7,Rain-Thunderstorm,234
2013-8-10,84,77,70,74,71,65,100,78,55,30.13,30.07,30.02,10,7,1,9,2,12,1.13,7,Rain,292
2013-8-11,86,79,71,74,72,70,100,81,61,30.13,30.07,30.01,10,7,1,7,1,12,T,7,Rain,332
2013-8-12,85,78,70,74,71,69,100,81,61,30.09,30.03,29.91,10,6,4,8,3,21,0.01,6,Rain,199
2013-8-13,81,72,63,72,69,58,93,86,78,29.97,29.89,29.85,10,9,4,13,6,22,0.30,7,Rain-Thunderstorm,258
2013-8-14,72,63,53,58,54,50,100,74,47,30.16,30.08,29.99,10,9,4,10,2,15,T,3,Rain,356
2013-8-15,77,64,50,62,55,50,100,75,50,30.18,30.13,30.06,10,6,0,7,2,10,0.00,4,Fog,35
2013-8-16,81,69,56,65,59,56,100,74,48,30.13,30.11,30.08,10,7,0,7,1,10,0.00,3,Fog,34
2013-8-17,77,67,57,66,60,57,100,77,54,30.20,30.16,30.13,10,7,0,9,3,13,0.03,4,Fog-Rain,86
2013-8-18,76,70,64,70,67,64,100,94,87,30.21,30.16,30.12,10,6,1,7,2,9,0.28,7,Rain,79
2013-8-19,81,72,63,70,66,61,100,76,51,30.16,30.13,30.08,10,7,1,9,2,13,0.00,5,,323
2013-8-20,84,72,60,69,64,60,100,76,51,30.20,30.15,30.11,10,6,0,9,1,17,0.00,2,Fog,46
2013-8-21,83,73,63,73,68,64,100,85,69,30.21,30.15,30.08,10,8,1,53,2,61,1.19,6,Rain-Thunderstorm,229
2013-8-22,85,73,61,72,68,61,100,83,65,30.17,30.10,30.02,10,7,1,17,2,23,0.56,6,Rain-Thunderstorm,198
2013-8-23,83,75,66,70,68,66,100,79,58,30.14,30.06,30.00,10,5,0,8,2,10,0.05,5,Fog,19
2013-8-24,83,72,61,66,63,56,100,71,42,30.28,30.23,30.13,10,6,0,9,2,13,0.00,3,Fog,50
2013-8-25,84,73,61,66,61,55,100,70,40,30.38,30.31,30.25,10,9,5,8,1,12,0.00,2,,140
2013-8-26,86,72,57,71,64,58,100,74,48,30.30,30.20,30.10,10,8,4,8,2,12,0.00,2,,253
2013-8-27,85,76,67,74,71,67,100,85,69,30.09,30.04,29.98,10,7,5,9,3,13,0.00,5,,233
2013-8-28,87,80,73,74,73,71,100,81,61,29.98,29.93,29.84,10,9,6,21,9,26,0.02,6,,238
2013-8-29,87,79,70,74,72,69,100,78,55,30.04,29.97,29.91,10,7,4,9,2,13,0.00,5,,332
2013-8-30,88,78,67,74,70,68,100,77,53,30.02,29.95,29.87,10,6,0,12,3,16,0.00,4,Fog,236
2013-8-31,83,75,67,73,70,66,100,79,58,29.96,29.88,29.81,10,8,5,16,4,21,T,4,Rain-Thunderstorm,221